This is the latest recevied weather packets stored in our database for station/object AI5YA-13. If no packets are shown the sender has not sent any weather packets the latest 10 day(s).
| Time | Temp. | Humidity | Pressure | Rain* | Wind** | Luminosity | Snow |
|---|---|---|---|---|---|---|---|
| 1777668648 | 12.78° C | 78% | 1017.3 hPa | 0 mm | - | 323 W/m² | - |
| 1777668344 | 12.78° C | 78% | 1017.3 hPa | 0 mm | - | 285 W/m² | - |
| 1777668040 | 12.78° C | 79% | 1017.1 hPa | 0 mm | - | 246 W/m² | - |
| 1777667737 | 12.78° C | 79% | 1017.4 hPa | 0 mm | - | 236 W/m² | - |
| 1777667435 | 12.22° C | 80% | 1017.3 hPa | 0 mm | - | 228 W/m² | - |
| 1777667131 | 12.22° C | 81% | 1016.9 hPa | 0 mm | - | 477 W/m² | - |
| 1777666827 | 12.22° C | 81% | 1017 hPa | 0 mm | - | 330 W/m² | - |
| 1777666525 | 11.67° C | 81% | 1017.1 hPa | 0 mm | - | 304 W/m² | - |
| 1777666221 | 12.22° C | 81% | 1017.1 hPa | 0 mm | - | 252 W/m² | - |
| 1777665919 | 12.22° C | 81% | 1017.3 hPa | 0 mm | - | 255 W/m² | - |
| 1777665616 | 11.67° C | 81% | 1017.4 hPa | 0 mm | - | 350 W/m² | - |
| 1777665313 | 12.22° C | 81% | 1017.3 hPa | 0 mm | - | 425 W/m² | - |
| 1777665009 | 11.67° C | 82% | 1017.3 hPa | 0 mm | - | 1124 W/m² | - |
| 1777664704 | 11.67° C | 83% | 1017.4 hPa | 0 mm | - | 422 W/m² | - |
| 1777664400 | 11.67° C | 84% | 1017.1 hPa | 0 mm | - | 386 W/m² | - |
| 1777664098 | 11.67° C | 84% | 1017.1 hPa | 0 mm | - | 486 W/m² | - |
| 1777663796 | 11.67° C | 84% | 1017.1 hPa | 0 mm | - | 338 W/m² | - |
| 1777663493 | 11.11° C | 84% | 1017.6 hPa | 0 mm | - | 347 W/m² | - |
| 1777663190 | 11.11° C | 84% | 1017.4 hPa | 0 mm | - | 344 W/m² | - |
| 1777662888 | 11.11° C | 84% | 1017.4 hPa | 0 mm | - | 225 W/m² | - |
| 1777662584 | 10.56° C | 85% | 1017.5 hPa | 0 mm | - | 221 W/m² | - |
| 1777662280 | 10.56° C | 85% | 1017.5 hPa | 0 mm | - | 182 W/m² | - |
| 1777661975 | 11.11° C | 85% | 1017.5 hPa | 0 mm | - | 239 W/m² | - |
| 1777661672 | 10.56° C | 85% | 1017.5 hPa | 0 mm | - | 249 W/m² | - |
| 1777661368 | 11.11° C | 86% | 1017.7 hPa | 0 mm | - | 200 W/m² | - |
* Rain latest hour (hover to see other rain measurements)
** Current wind speed in m/s (hover to see current wind gust speed)